| time (UTC) | temp C | wind direction | speed KPH | gust KPH | rain 1hr cm | rain 24hr cm | rain mn cm | humidity % | barometer mb |
| 20260506212729 | 22 | 36 | 0.0 | 3.2 | 0.00 | 0.00 | 0.00 | 85 | 1010.6 |
| 20260506212450 | 22 | 46 | 0.0 | 3.2 | 0.00 | 0.00 | 0.00 | 86 | 1010.6 |
| 20260506211729 | 22 | 51 | 0.0 | 1.6 | 0.00 | 0.00 | 0.00 | 88 | 1010.7 |
| 20260506211452 | 22 | 31 | 0.0 | 1.6 | 0.00 | 0.00 | 0.00 | 87 | 1010.9 |
| 20260506210724 | 22 | 49 | 0.0 | 1.6 | 0.00 | 0.00 | 0.00 | 88 | 1010.6 |
| 20260506210438 | 21 | 45 | 0.0 | 1.6 | 0.00 | 0.00 | 0.00 | 89 | 1010.6 |
| 20260506205710 | 21 | 31 | 0.0 | 1.6 | 0.00 | 0.00 | 0.00 | 91 | 1010.5 |
| 20260506205207 | 21 | 344 | 0.0 | 0.0 | 0.00 | 0.00 | 0.00 | 92 | 1010.4 |
| 20260506204709 | 21 | 43 | 0.0 | 1.6 | 0.00 | 0.00 | 0.00 | 92 | 1010.5 |
| 20260506204207 | 21 | 162 | 0.0 | 3.2 | 0.00 | 0.00 | 0.00 | 92 | 1010.3 |
| 20260506203705 | 21 | 81 | 0.0 | 3.2 | 0.00 | 0.00 | 0.00 | 92 | 1010.3 |
| 20260506203204 | 21 | 48 | 0.0 | 1.6 | 0.00 | 0.00 | 0.00 | 92 | 1010.3 |
| 20260506202703 | 21 | 299 | 0.0 | 1.6 | 0.00 | 0.00 | 0.00 | 93 | 1010.4 |
| 20260506202201 | 20 | 77 | 0.0 | 1.6 | 0.00 | 0.00 | 0.00 | 92 | 1010.7 |
| 20260506201701 | 20 | 137 | 0.0 | 1.6 | 0.00 | 0.00 | 0.00 | 93 | 1010.7 |
| 20260506201203 | 20 | 54 | 0.0 | 1.6 | 0.00 | 0.00 | 0.00 | 94 | 1010.8 |
| 20260506200700 | 20 | 42 | 0.0 | 1.6 | 0.00 | 0.00 | 0.00 | 94 | 1011.0 |
| 20260506200421 | 20 | 46 | 0.0 | 1.6 | 0.00 | 0.00 | 0.00 | 94 | 1010.7 |
| 20260506195701 | 20 | 46 | 0.0 | 1.6 | 0.00 | 0.00 | 0.00 | 94 | 1010.7 |
| 20260506195203 | 20 | 79 | 0.0 | 0.0 | 0.00 | 0.00 | 0.00 | 94 | 1010.7 |
| 20260506194703 | 20 | 232 | 0.0 | 1.6 | 0.00 | 0.00 | 0.00 | 93 | 1010.8 |
| 20260506194200 | 19 | 288 | 0.0 | 1.6 | 0.00 | 0.00 | 0.00 | 93 | 1010.8 |
| 20260506193701 | 19 | 160 | 0.0 | 1.6 | 0.00 | 0.00 | 0.00 | 92 | 1011.0 |
| 20260506193201 | 19 | 105 | 0.0 | 1.6 | 0.00 | 0.00 | 0.00 | 91 | 1011.4 |
| 20260506192701 | 20 | 132 | 0.0 | 3.2 | 0.00 | 0.00 | 0.00 | 91 | 1011.8 |
| 20260506192200 | 20 | 257 | 0.0 | 3.2 | 0.00 | 0.00 | 0.00 | 90 | 1012.0 |
| 20260506191703 | 20 | 336 | 0.0 | 1.6 | 0.00 | 0.00 | 0.00 | 90 | 1012.4 |
| 20260506191425 | 20 | 46 | 0.0 | 1.6 | 0.00 | 0.00 | 0.00 | 89 | 1012.8 |
| 20260506190701 | 20 | 351 | 0.0 | 1.6 | 0.00 | 0.00 | 0.00 | 87 | 1012.9 |
| 20260506190201 | 21 | 50 | 0.0 | 3.2 | 0.00 | 0.00 | 0.00 | 85 | 1013.0 |
| 20260506185700 | 22 | 33 | 0.0 | 9.7 | 0.00 | 0.00 | 0.00 | 81 | 1013.1 |
| 20260506185203 | 23 | 80 | 0.0 | 9.7 | 0.00 | 0.00 | 0.00 | 75 | 1013.1 |
| 20260506184704 | 23 | 41 | 0.0 | 4.8 | 0.00 | 0.00 | 0.00 | 69 | 1012.8 |
| 20260506184203 | 23 | 56 | 0.0 | 4.8 | 0.00 | 0.00 | 0.00 | 69 | 1012.5 |
| 20260506183703 | 24 | 12 | 1.6 | 6.4 | 0.00 | 0.00 | 0.00 | 69 | 1012.6 |
| 20260506183203 | 24 | 55 | 0.0 | 6.4 | 0.00 | 0.00 | 0.00 | 68 | 1012.5 |
| 20260506182704 | 24 | 46 | 1.6 | 8.0 | 0.00 | 0.00 | 0.00 | 69 | 1012.5 |
| 20260506182425 | 24 | 30 | 1.6 | 8.0 | 0.00 | 0.00 | 0.00 | 68 | 1012.5 |
| 20260506181703 | 24 | 48 | 0.0 | 12.9 | 0.00 | 0.00 | 0.00 | 68 | 1012.5 |
| 20260506181203 | 24 | 160 | 1.6 | 12.9 | 0.00 | 0.00 | 0.00 | 69 | 1012.6 |
| 20260506180703 | 24 | 62 | 0.0 | 6.4 | 0.00 | 0.00 | 0.00 | 69 | 1012.6 |
| 20260506180424 | 23 | 44 | 0.0 | 6.4 | 0.00 | 0.00 | 0.00 | 70 | 1012.6 |
| 20260506175933 | 23 | 57 | 0.0 | 4.8 | 0.00 | 0.00 | 0.00 | 70 | 1012.7 |
| 20260506175205 | 23 | 104 | 0.0 | 6.4 | 0.00 | 0.00 | 0.00 | 71 | 1012.8 |
| 20260506174703 | 23 | 98 | 0.0 | 6.4 | 0.00 | 0.00 | 0.00 | 71 | 1012.8 |
| 20260506174204 | 23 | 92 | 0.0 | 6.4 | 0.00 | 0.00 | 0.00 | 72 | 1013.0 |
| 20260506173702 | 23 | 28 | 0.0 | 8.0 | 0.00 | 0.00 | 0.00 | 73 | 1012.9 |
| 20260506173204 | 22 | 96 | 0.0 | 8.0 | 0.00 | 0.00 | 0.00 | 73 | 1013.0 |
| 20260506172703 | 22 | 53 | 0.0 | 8.0 | 0.00 | 0.00 | 0.00 | 73 | 1013.2 |
| 20260506172204 | 22 | 87 | 0.0 | 3.2 | 0.00 | 0.00 | 0.00 | 73 | 1013.3 |
| 20260506171703 | 22 | 318 | 0.0 | 6.4 | 0.00 | 0.00 | 0.00 | 74 | 1013.4 |
| 20260506171201 | 22 | 101 | 0.0 | 6.4 | 0.00 | 0.00 | 0.00 | 75 | 1013.5 |
| 20260506170702 | 22 | 39 | 0.0 | 4.8 | 0.00 | 0.00 | 0.00 | 76 | 1013.4 |
| 20260506170201 | 22 | 69 | 0.0 | 4.8 | 0.00 | 0.00 | 0.00 | 75 | 1013.4 |
| 20260506165701 | 22 | 70 | 0.0 | 1.6 | 0.00 | 0.00 | 0.00 | 75 | 1013.4 |
| 20260506165201 | 22 | 139 | 0.0 | 1.6 | 0.00 | 0.00 | 0.00 | 73 | 1013.5 |
| 20260506164924 | 22 | 52 | 0.0 | 3.2 | 0.00 | 0.00 | 0.00 | 72 | 1013.5 |
| 20260506164201 | 22 | 45 | 0.0 | 3.2 | 0.00 | 0.00 | 0.00 | 70 | 1013.5 |
| 20260506163701 | 22 | 54 | 0.0 | 8.0 | 0.00 | 0.00 | 0.00 | 69 | 1013.6 |
| 20260506163201 | 22 | 112 | 0.0 | 8.0 | 0.00 | 0.00 | 0.00 | 69 | 1013.7 |
| 20260506162700 | 22 | 159 | 0.0 | 1.6 | 0.00 | 0.00 | 0.00 | 69 | 1013.6 |
| 20260506162202 | 22 | 126 | 0.0 | 1.6 | 0.00 | 0.00 | 0.00 | 69 | 1013.4 |
| 20260506161701 | 22 | 106 | 0.0 | 4.8 | 0.00 | 0.00 | 0.00 | 70 | 1013.5 |
| 20260506161419 | 22 | 65 | 0.0 | 8.0 | 0.00 | 0.00 | 0.00 | 70 | 1013.5 |
| 20260506160702 | 22 | 230 | 0.0 | 8.0 | 0.00 | 0.00 | 0.00 | 70 | 1013.5 |
| 20260506160200 | 22 | 49 | 0.0 | 4.8 | 0.00 | 0.00 | 0.00 | 70 | 1013.6 |
| 20260506155705 | 22 | 113 | 0.0 | 3.2 | 0.00 | 0.00 | 0.00 | 70 | 1013.5 |
| 20260506155203 | 21 | 43 | 0.0 | 1.6 | 0.00 | 0.00 | 0.00 | 72 | 1013.4 |
| 20260506154703 | 21 | 75 | 0.0 | 1.6 | 0.00 | 0.00 | 0.00 | 72 | 1013.5 |
| 20260506154203 | 21 | 29 | 0.0 | 1.6 | 0.00 | 0.00 | 0.00 | 72 | 1013.5 |
| 20260506153704 | 21 | 295 | 0.0 | 1.6 | 0.00 | 0.00 | 0.00 | 72 | 1013.5 |
| 20260506153204 | 21 | 135 | 0.0 | 4.8 | 0.00 | 0.00 | 0.00 | 72 | 1013.5 |
| 20260506152704 | 21 | 24 | 0.0 | 4.8 | 0.00 | 0.00 | 0.00 | 72 | 1013.4 |
| 20260506152203 | 21 | 47 | 0.0 | 3.2 | 0.00 | 0.00 | 0.00 | 73 | 1013.3 |
| 20260506151703 | 21 | 76 | 0.0 | 3.2 | 0.00 | 0.00 | 0.00 | 73 | 1013.3 |
| 20260506151204 | 21 | 47 | 0.0 | 1.6 | 0.00 | 0.00 | 0.00 | 73 | 1013.3 |
| 20260506150703 | 21 | 117 | 0.0 | 8.0 | 0.00 | 0.00 | 0.00 | 73 | 1013.3 |
| 20260506150203 | 21 | 195 | 0.0 | 8.0 | 0.00 | 0.00 | 0.00 | 72 | 1013.2 |
| 20260506145704 | 21 | 34 | 0.0 | 14.5 | 0.00 | 0.00 | 0.00 | 73 | 1013.2 |
| 20260506145203 | 21 | 113 | 0.0 | 14.5 | 0.00 | 0.00 | 0.00 | 73 | 1013.4 |
| 20260506144703 | 20 | 46 | 0.0 | 8.0 | 0.00 | 0.00 | 0.00 | 74 | 1013.4 |
| 20260506144203 | 20 | 334 | 0.0 | 3.2 | 0.00 | 0.00 | 0.00 | 74 | 1013.4 |
| 20260506143928 | 20 | 317 | 0.0 | 8.0 | 0.00 | 0.00 | 0.00 | 75 | 1013.4 |
| 20260506143203 | 20 | 131 | 0.0 | 8.0 | 0.00 | 0.00 | 0.00 | 75 | 1013.4 |
| 20260506142704 | 20 | 62 | 0.0 | 1.6 | 0.00 | 0.00 | 0.00 | 76 | 1013.7 |
| 20260506142203 | 20 | 90 | 0.0 | 1.6 | 0.00 | 0.00 | 0.00 | 76 | 1013.7 |
| 20260506141704 | 19 | 43 | 0.0 | 4.8 | 0.00 | 0.00 | 0.00 | 76 | 1013.7 |
| 20260506141203 | 19 | 243 | 0.0 | 4.8 | 0.00 | 0.00 | 0.00 | 76 | 1013.6 |
| 20260506140703 | 19 | 104 | 0.0 | 8.0 | 0.00 | 0.00 | 0.00 | 77 | 1013.6 |
| 20260506140203 | 19 | 62 | 0.0 | 8.0 | 0.00 | 0.00 | 0.00 | 77 | 1013.7 |
| 20260506135703 | 19 | 145 | 0.0 | 1.6 | 0.00 | 0.00 | 0.00 | 77 | 1013.6 |
| 20260506135202 | 18 | 60 | 0.0 | 3.2 | 0.00 | 0.00 | 0.00 | 78 | 1013.8 |
| 20260506134703 | 18 | 80 | 0.0 | 6.4 | 0.00 | 0.00 | 0.00 | 78 | 1013.8 |
| 20260506134201 | 18 | 139 | 0.0 | 6.4 | 0.00 | 0.00 | 0.00 | 79 | 1013.8 |
| 20260506133701 | 18 | 48 | 0.0 | 1.6 | 0.00 | 0.00 | 0.00 | 79 | 1014.0 |
| 20260506133202 | 18 | 53 | 0.0 | 1.6 | 0.00 | 0.00 | 0.00 | 80 | 1014.0 |
| 20260506132702 | 18 | 23 | 0.0 | 1.6 | 0.00 | 0.00 | 0.00 | 80 | 1014.1 |
| 20260506132201 | 18 | 213 | 0.0 | 1.6 | 0.00 | 0.00 | 0.00 | 79 | 1014.3 |
| 20260506131701 | 18 | 32 | 0.0 | 4.8 | 0.00 | 0.00 | 0.00 | 80 | 1014.1 |
| 20260506131425 | 18 | 50 | 0.0 | 4.8 | 0.00 | 0.00 | 0.00 | 80 | 1013.8 |
| 20260506130701 | 18 | 44 | 0.0 | 3.2 | 0.00 | 0.00 | 0.00 | 80 | 1013.8 |
| 20260506130201 | 18 | 26 | 0.0 | 4.8 | 0.00 | 0.00 | 0.00 | 80 | 1013.9 |
| 20260506125701 | 17 | 43 | 0.0 | 4.8 | 0.00 | 0.00 | 0.00 | 81 | 1013.7 |
| 20260506125203 | 17 | 29 | 0.0 | 1.6 | 0.00 | 0.00 | 0.00 | 82 | 1013.6 |
| 20260506124700 | 17 | 175 | 0.0 | 8.0 | 0.00 | 0.00 | 0.00 | 83 | 1013.5 |
| 20260506124201 | 17 | 170 | 0.0 | 8.0 | 0.00 | 0.00 | 0.00 | 84 | 1013.5 |
| 20260506123701 | 17 | 47 | 0.0 | 1.6 | 0.00 | 0.00 | 0.00 | 84 | 1013.5 |
| 20260506123201 | 17 | 57 | 0.0 | 1.6 | 0.00 | 0.00 | 0.00 | 85 | 1013.5 |
| 20260506122700 | 17 | 110 | 0.0 | 1.6 | 0.00 | 0.00 | 0.00 | 85 | 1013.4 |
| 20260506122201 | 17 | 76 | 0.0 | 1.6 | 0.00 | 0.00 | 0.00 | 85 | 1013.2 |
| 20260506121701 | 17 | 83 | 0.0 | 0.0 | 0.00 | 0.00 | 0.00 | 85 | 1013.1 |
| 20260506121201 | 17 | 106 | 0.0 | 1.6 | 0.00 | 0.00 | 0.00 | 86 | 1013.1 |
| 20260506120927 | 16 | 23 | 0.0 | 1.6 | 0.00 | 0.00 | 0.00 | 86 | 1013.1 |
| 20260506120200 | 16 | 234 | 0.0 | 1.6 | 0.00 | 0.00 | 0.00 | 86 | 1013.0 |
| 20260506115701 | 16 | 73 | 0.0 | 1.6 | 0.00 | 0.00 | 0.00 | 86 | 1013.1 |
| 20260506115201 | 16 | 257 | 0.0 | 1.6 | 0.00 | 0.00 | 0.00 | 87 | 1013.1 |
| 20260506114700 | 16 | 55 | 0.0 | 1.6 | 0.00 | 0.00 | 0.00 | 87 | 1013.3 |
| 20260506114200 | 16 | 154 | 0.0 | 1.6 | 0.00 | 0.00 | 0.00 | 87 | 1013.3 |
| 20260506113703 | 16 | 271 | 0.0 | 0.0 | 0.00 | 0.00 | 0.00 | 87 | 1013.3 |
| 20260506113203 | 16 | 211 | 0.0 | 3.2 | 0.00 | 0.00 | 0.00 | 87 | 1013.3 |
| 20260506112703 | 16 | 266 | 0.0 | 3.2 | 0.00 | 0.00 | 0.00 | 87 | 1013.4 |
| 20260506112205 | 16 | 296 | 0.0 | 0.0 | 0.00 | 0.00 | 0.00 | 88 | 1013.3 |
| 20260506111702 | 16 | 65 | 0.0 | 1.6 | 0.00 | 0.00 | 0.00 | 88 | 1013.3 |
| 20260506111204 | 16 | 44 | 0.0 | 1.6 | 0.00 | 0.00 | 0.00 | 88 | 1013.1 |
| 20260506110703 | 16 | 81 | 0.0 | 1.6 | 0.00 | 0.00 | 0.00 | 88 | 1013.0 |
| 20260506110203 | 16 | 112 | 0.0 | 1.6 | 0.00 | 0.00 | 0.00 | 88 | 1013.1 |
| 20260506105702 | 16 | 78 | 0.0 | 1.6 | 0.00 | 0.00 | 0.00 | 88 | 1013.1 |
| 20260506105204 | 15 | 79 | 0.0 | 1.6 | 0.00 | 0.00 | 0.00 | 89 | 1013.0 |
| 20260506104703 | 15 | 88 | 0.0 | 1.6 | 0.00 | 0.00 | 0.00 | 89 | 1013.0 |
| 20260506104204 | 15 | 34 | 0.0 | 1.6 | 0.00 | 0.00 | 0.00 | 89 | 1012.9 |
| 20260506103701 | 15 | 73 | 0.0 | 1.6 | 0.00 | 0.00 | 0.00 | 89 | 1012.9 |
| 20260506103201 | 15 | 198 | 0.0 | 1.6 | 0.00 | 0.00 | 0.00 | 89 | 1013.1 |
| 20260506102701 | 15 | 223 | 0.0 | 1.6 | 0.00 | 0.00 | 0.00 | 88 | 1013.0 |
| 20260506102428 | 15 | 108 | 0.0 | 1.6 | 0.00 | 0.00 | 0.00 | 88 | 1013.2 |
| 20260506101700 | 15 | 220 | 0.0 | 0.0 | 0.00 | 0.00 | 0.00 | 88 | 1013.1 |
| 20260506101200 | 15 | 294 | 0.0 | 0.0 | 0.00 | 0.00 | 0.00 | 88 | 1013.2 |
| 20260506100702 | 16 | 135 | 0.0 | 0.0 | 0.00 | 0.00 | 0.00 | 87 | 1013.3 |
| 20260506100203 | 16 | 133 | 0.0 | 1.6 | 0.00 | 0.00 | 0.00 | 87 | 1013.3 |
| 20260506095700 | 16 | 121 | 0.0 | 1.6 | 0.00 | 0.00 | 0.00 | 87 | 1013.3 |
| 20260506095200 | 16 | 121 | 0.0 | 0.0 | 0.00 | 0.00 | 0.00 | 87 | 1013.3 |
| 20260506094702 | 16 | 49 | 0.0 | 0.0 | 0.00 | 0.00 | 0.00 | 87 | 1013.2 |
| 20260506094202 | 16 | 29 | 0.0 | 1.6 | 0.00 | 0.00 | 0.00 | 87 | 1013.3 |
| 20260506093701 | 16 | 81 | 0.0 | 1.6 | 0.00 | 0.00 | 0.00 | 87 | 1013.3 |
| 20260506093201 | 16 | 125 | 0.0 | 0.0 | 0.00 | 0.00 | 0.00 | 87 | 1013.4 |
| 20260506093148 | 16 | 176 | 0.0 | 1.6 | 0.00 | 0.00 | 0.00 | 87 | 1013.5 |
| 20260506092204 | 16 | 97 | 0.0 | 1.6 | 0.00 | 0.00 | 0.00 | 87 | 1013.6 |
| 20260506091703 | 16 | 229 | 0.0 | 0.0 | 0.00 | 0.00 | 0.00 | 87 | 1013.5 |
| 20260506091203 | 16 | 109 | 0.0 | 0.0 | 0.00 | 0.00 | 0.00 | 86 | 1013.4 |
| 20260506090702 | 16 | 109 | 0.0 | 0.0 | 0.00 | 0.00 | 0.00 | 86 | 1013.4 |
| 20260506090205 | 16 | 107 | 0.0 | 0.0 | 0.00 | 0.00 | 0.00 | 86 | 1013.3 |
| 20260506085705 | 16 | 215 | 0.0 | 1.6 | 0.00 | 0.00 | 0.00 | 86 | 1013.3 |
| 20260506085204 | 16 | 215 | 0.0 | 1.6 | 0.00 | 0.00 | 0.00 | 86 | 1013.3 |
| 20260506084703 | 16 | 50 | 0.0 | 1.6 | 0.00 | 0.00 | 0.00 | 86 | 1013.4 |
| 20260506084203 | 16 | 163 | 0.0 | 0.0 | 0.00 | 0.00 | 0.00 | 85 | 1013.5 |
| 20260506083703 | 16 | 111 | 0.0 | 0.0 | 0.00 | 0.00 | 0.00 | 85 | 1013.3 |
| 20260506083204 | 16 | 240 | 0.0 | 0.0 | 0.00 | 0.00 | 0.00 | 85 | 1013.4 |
| 20260506082927 | 16 | 143 | 0.0 | 0.0 | 0.00 | 0.00 | 0.00 | 85 | 1013.3 |
| 20260506082203 | 16 | 58 | 0.0 | 1.6 | 0.00 | 0.00 | 0.00 | 85 | 1013.4 |
| 20260506081703 | 16 | 102 | 0.0 | 1.6 | 0.00 | 0.00 | 0.00 | 85 | 1013.2 |
| 20260506081204 | 16 | 61 | 0.0 | 1.6 | 0.00 | 0.00 | 0.00 | 85 | 1013.3 |
| 20260506080703 | 16 | 57 | 0.0 | 1.6 | 0.00 | 0.00 | 0.00 | 85 | 1013.2 |
| 20260506080204 | 16 | 124 | 0.0 | 1.6 | 0.00 | 0.00 | 0.00 | 84 | 1013.3 |
| 20260506073205 | 16 | 102 | 0.0 | 1.6 | 0.00 | 0.00 | 0.00 | 83 | 1013.5 |
| 20260506072703 | 16 | 74 | 0.0 | 1.6 | 0.00 | 0.00 | 0.00 | 83 | 1013.4 |
| 20260506072203 | 16 | 111 | 0.0 | 1.6 | 0.00 | 0.00 | 0.00 | 83 | 1013.6 |
| 20260506071703 | 16 | 106 | 0.0 | 1.6 | 0.00 | 0.00 | 0.00 | 83 | 1013.6 |
| 20260506071203 | 16 | 50 | 0.0 | 1.6 | 0.00 | 0.00 | 0.00 | 83 | 1013.5 |
| 20260506070703 | 16 | 79 | 0.0 | 1.6 | 0.00 | 0.00 | 0.00 | 83 | 1013.4 |
| 20260506070203 | 16 | 95 | 0.0 | 1.6 | 0.00 | 0.00 | 0.00 | 83 | 1013.5 |
| 20260506062201 | 17 | 124 | 0.0 | 3.2 | 0.00 | 0.00 | 0.00 | 81 | 1013.8 |
| 20260506061702 | 17 | 214 | 0.0 | 3.2 | 0.00 | 0.00 | 0.00 | 81 | 1013.9 |
| 20260506061201 | 17 | 93 | 0.0 | 1.6 | 0.00 | 0.00 | 0.00 | 81 | 1013.9 |
| 20260506060700 | 17 | 42 | 0.0 | 1.6 | 0.00 | 0.00 | 0.00 | 81 | 1013.9 |
| 20260506060201 | 17 | 89 | 0.0 | 1.6 | 0.00 | 0.00 | 0.00 | 81 | 1014.0 |
| 20260506051141 | 17 | 86 | 0.0 | 4.8 | 0.00 | 0.00 | 0.00 | 80 | 1014.3 |
| 20260506050639 | 17 | 137 | 0.0 | 3.2 | 0.00 | 0.00 | 0.00 | 80 | 1014.3 |
| 20260506050139 | 17 | 81 | 0.0 | 8.0 | 0.00 | 0.00 | 0.00 | 80 | 1014.4 |
| 20260506044637 | 18 | 84 | 0.0 | 1.6 | 0.00 | 0.00 | 0.00 | 80 | 1014.5 |
| 20260506044400 | 18 | 187 | 0.0 | 8.0 | 0.00 | 0.00 | 0.00 | 79 | 1014.5 |
| 20260506043635 | 18 | 210 | 0.0 | 8.0 | 0.00 | 0.00 | 0.00 | 79 | 1014.5 |
| 20260506043133 | 18 | 118 | 0.0 | 1.6 | 0.00 | 0.00 | 0.00 | 79 | 1014.5 |
| 20260506042631 | 18 | 74 | 0.0 | 6.4 | 0.00 | 0.00 | 0.00 | 79 | 1014.4 |
| 20260506042133 | 18 | 101 | 0.0 | 6.4 | 0.00 | 0.00 | 0.00 | 78 | 1014.5 |
| 20260506041630 | 18 | 330 | 0.0 | 11.3 | 0.00 | 0.00 | 0.00 | 78 | 1014.5 |
| 20260506041613 | 18 | 65 | 0.0 | 11.3 | 0.00 | 0.00 | 0.00 | 78 | 1014.5 |
| 20260506040629 | 18 | 161 | 0.0 | 8.0 | 0.00 | 0.00 | 0.00 | 78 | 1014.4 |
| 20260506040129 | 18 | 63 | 0.0 | 4.8 | 0.00 | 0.00 | 0.00 | 77 | 1014.4 |
| 20260506035856 | 18 | 68 | 0.0 | 6.4 | 0.00 | 0.00 | 0.00 | 77 | 1014.5 |
| 20260506035130 | 18 | 153 | 0.0 | 6.4 | 0.00 | 0.00 | 0.00 | 76 | 1014.5 |
| 20260506034629 | 18 | 154 | 0.0 | 8.0 | 0.00 | 0.00 | 0.00 | 76 | 1014.5 |
| 20260506034131 | 18 | 143 | 0.0 | 8.0 | 0.00 | 0.00 | 0.00 | 75 | 1014.5 |
| 20260506033628 | 18 | 133 | 0.0 | 4.8 | 0.00 | 0.00 | 0.00 | 74 | 1014.5 |
| 20260506033350 | 19 | 243 | 0.0 | 4.8 | 0.00 | 0.00 | 0.00 | 74 | 1014.5 |
| 20260506032630 | 19 | 286 | 0.0 | 4.8 | 0.00 | 0.00 | 0.00 | 73 | 1014.4 |
| 20260506032129 | 19 | 44 | 0.0 | 4.8 | 0.00 | 0.00 | 0.00 | 73 | 1014.6 |
| 20260506031630 | 19 | 297 | 0.0 | 1.6 | 0.00 | 0.00 | 0.00 | 72 | 1014.7 |
| 20260506031129 | 19 | 174 | 0.0 | 9.7 | 0.00 | 0.00 | 0.00 | 72 | 1014.6 |
| 20260506030852 | 19 | 176 | 0.0 | 9.7 | 0.00 | 0.00 | 0.00 | 71 | 1014.6 |
| 20260506030129 | 19 | 112 | 0.0 | 8.0 | 0.00 | 0.00 | 0.00 | 71 | 1014.6 |
| 20260506025629 | 20 | 101 | 0.0 | 8.0 | 0.00 | 0.00 | 0.00 | 71 | 1014.6 |
| 20260506025130 | 20 | 263 | 0.0 | 8.0 | 0.00 | 0.00 | 0.00 | 70 | 1014.5 |
| 20260506024631 | 20 | 91 | 0.0 | 3.2 | 0.00 | 0.00 | 0.00 | 70 | 1014.5 |
| 20260506024131 | 20 | 77 | 0.0 | 4.8 | 0.00 | 0.00 | 0.00 | 69 | 1014.5 |
| 20260506023629 | 20 | 98 | 0.0 | 8.0 | 0.00 | 0.00 | 0.00 | 69 | 1014.5 |
| 20260506023348 | 20 | 121 | 0.0 | 8.0 | 0.00 | 0.00 | 0.00 | 68 | 1014.4 |
| 20260506022856 | 20 | 169 | 0.0 | 4.8 | 0.00 | 0.00 | 0.00 | 68 | 1014.5 |
| 20260506022349 | 20 | 204 | 0.0 | 6.4 | 0.00 | 0.00 | 0.00 | 68 | 1014.4 |
| 20260506021629 | 20 | 109 | 0.0 | 6.4 | 0.00 | 0.00 | 0.00 | 67 | 1014.4 |
| 20260506021128 | 20 | 32 | 0.0 | 6.4 | 0.00 | 0.00 | 0.00 | 67 | 1014.4 |
| 20260506020629 | 21 | 186 | 0.0 | 6.4 | 0.00 | 0.00 | 0.00 | 66 | 1014.2 |
| 20260506020128 | 21 | 198 | 0.0 | 4.8 | 0.00 | 0.00 | 0.00 | 66 | 1014.2 |
| 20260506015629 | 21 | 197 | 0.0 | 3.2 | 0.00 | 0.00 | 0.00 | 65 | 1014.2 |
| 20260506015350 | 21 | 196 | 0.0 | 8.0 | 0.00 | 0.00 | 0.00 | 65 | 1014.0 |
| 20260506014628 | 21 | 109 | 0.0 | 8.0 | 0.00 | 0.00 | 0.00 | 65 | 1014.0 |
| 20260506014129 | 21 | 106 | 0.0 | 1.6 | 0.00 | 0.00 | 0.00 | 64 | 1013.9 |
| 20260506013629 | 21 | 218 | 0.0 | 4.8 | 0.00 | 0.00 | 0.00 | 64 | 1013.8 |
| 20260506013131 | 21 | 144 | 0.0 | 4.8 | 0.00 | 0.00 | 0.00 | 63 | 1013.7 |
| 20260506012628 | 21 | 62 | 0.0 | 1.6 | 0.00 | 0.00 | 0.00 | 63 | 1013.7 |
| 20260506012129 | 21 | 72 | 0.0 | 1.6 | 0.00 | 0.00 | 0.00 | 63 | 1013.6 |
| 20260506011630 | 21 | 140 | 0.0 | 6.4 | 0.00 | 0.00 | 0.00 | 62 | 1013.5 |
| 20260506011129 | 22 | 68 | 0.0 | 6.4 | 0.00 | 0.00 | 0.00 | 62 | 1013.5 |
| 20260506010847 | 22 | 49 | 0.0 | 1.6 | 0.00 | 0.00 | 0.00 | 61 | 1013.5 |
| 20260506010129 | 22 | 242 | 0.0 | 1.6 | 0.00 | 0.00 | 0.00 | 61 | 1013.4 |
| 20260506005630 | 22 | 99 | 0.0 | 1.6 | 0.00 | 0.00 | 0.00 | 61 | 1013.3 |
| 20260506005129 | 22 | 100 | 0.0 | 1.6 | 0.00 | 0.00 | 0.00 | 60 | 1013.2 |
| 20260506004629 | 22 | 173 | 0.0 | 1.6 | 0.00 | 0.00 | 0.00 | 60 | 1013.1 |
| 20260506004128 | 22 | 107 | 0.0 | 1.6 | 0.00 | 0.00 | 0.00 | 60 | 1013.1 |
| 20260506003847 | 22 | 204 | 0.0 | 1.6 | 0.00 | 0.00 | 0.00 | 59 | 1013.1 |
| 20260506003129 | 22 | 56 | 0.0 | 1.6 | 0.00 | 0.00 | 0.00 | 59 | 1013.0 |
| 20260506002629 | 22 | 79 | 0.0 | 1.6 | 0.00 | 0.00 | 0.00 | 59 | 1012.9 |
| 20260506002130 | 22 | 225 | 0.0 | 1.6 | 0.00 | 0.00 | 0.00 | 58 | 1012.9 |
| 20260506001628 | 22 | 119 | 0.0 | 1.6 | 0.00 | 0.00 | 0.00 | 58 | 1012.9 |
| 20260506001129 | 23 | 119 | 0.0 | 1.6 | 0.00 | 0.00 | 0.00 | 58 | 1012.8 |
| 20260506000629 | 23 | 73 | 0.0 | 1.6 | 0.00 | 0.00 | 0.00 | 57 | 1012.8 |
| 20260506000129 | 23 | 48 | 0.0 | 1.6 | 0.00 | 0.00 | 0.00 | 57 | 1012.7 |
| 20260505235629 | 23 | 136 | 0.0 | 3.2 | 0.00 | 0.00 | 0.00 | 56 | 1012.6 |
| 20260505235353 | 23 | 99 | 0.0 | 3.2 | 0.00 | 0.00 | 0.00 | 56 | 1012.7 |
| 20260505234631 | 23 | 85 | 0.0 | 3.2 | 0.00 | 0.00 | 0.00 | 55 | 1012.7 |
| 20260505234130 | 23 | 230 | 0.0 | 0.0 | 0.00 | 0.00 | 0.00 | 55 | 1012.7 |
| 20260505233629 | 24 | 108 | 0.0 | 0.0 | 0.00 | 0.00 | 0.00 | 54 | 1012.7 |
| 20260505233129 | 24 | 204 | 0.0 | 3.2 | 0.00 | 0.00 | 0.00 | 53 | 1012.6 |
| 20260505232631 | 24 | 115 | 0.0 | 3.2 | 0.00 | 0.00 | 0.00 | 53 | 1012.7 |
| 20260505232355 | 24 | 76 | 0.0 | 3.2 | 0.00 | 0.00 | 0.00 | 53 | 1012.7 |
| 20260505231629 | 24 | 199 | 0.0 | 3.2 | 0.00 | 0.00 | 0.00 | 53 | 1012.6 |
| 20260505231128 | 24 | 351 | 0.0 | 3.2 | 0.00 | 0.00 | 0.00 | 53 | 1012.6 |
| 20260505230629 | 24 | 105 | 0.0 | 3.2 | 0.00 | 0.00 | 0.00 | 52 | 1012.5 |
| 20260505230129 | 24 | 41 | 0.0 | 6.4 | 0.00 | 0.00 | 0.00 | 52 | 1012.6 |
| 20260505225629 | 24 | 285 | 0.0 | 14.5 | 0.00 | 0.00 | 0.00 | 51 | 1012.6 |
| 20260505225129 | 25 | 100 | 0.0 | 14.5 | 0.00 | 0.00 | 0.00 | 51 | 1012.6 |
| 20260505224629 | 25 | 50 | 0.0 | 6.4 | 0.00 | 0.00 | 0.00 | 50 | 1012.7 |
| 20260505224129 | 25 | 211 | 0.0 | 3.2 | 0.00 | 0.00 | 0.00 | 50 | 1012.7 |
| 20260505223629 | 25 | 193 | 0.0 | 3.2 | 0.00 | 0.00 | 0.00 | 49 | 1012.9 |
| 20260505223130 | 25 | 118 | 0.0 | 3.2 | 0.00 | 0.00 | 0.00 | 48 | 1012.8 |
| 20260505222629 | 25 | 160 | 0.0 | 9.7 | 0.00 | 0.00 | 0.00 | 48 | 1012.9 |
| 20260505222128 | 26 | 52 | 1.6 | 9.7 | 0.00 | 0.00 | 0.00 | 47 | 1012.9 |
| 20260505221629 | 26 | 164 | 1.6 | 9.7 | 0.00 | 0.00 | 0.00 | 47 | 1012.8 |
| 20260505221129 | 26 | 180 | 0.0 | 16.1 | 0.00 | 0.00 | 0.00 | 47 | 1012.8 |
| 20260505220629 | 26 | 95 | 1.6 | 16.1 | 0.00 | 0.00 | 0.00 | 47 | 1012.8 |
| 20260505220129 | 26 | 58 | 1.6 | 14.5 | 0.00 | 0.00 | 0.00 | 47 | 1012.8 |
| 20260505215629 | 26 | 41 | 0.0 | 8.0 | 0.00 | 0.00 | 0.00 | 46 | 1013.0 |
| 20260505215129 | 26 | 350 | 0.0 | 8.0 | 0.00 | 0.00 | 0.00 | 46 | 1012.8 |
| 20260505214629 | 26 | 48 | 1.6 | 6.4 | 0.00 | 0.00 | 0.00 | 46 | 1012.8 |
| 20260505214129 | 26 | 41 | 1.6 | 6.4 | 0.00 | 0.00 | 0.00 | 46 | 1012.9 |
| 20260505213629 | 26 | 19 | 1.6 | 8.0 | 0.00 | 0.00 | 0.00 | 46 | 1012.8 |
| 20260505213130 | 26 | 93 | 1.6 | 8.0 | 0.00 | 0.00 | 0.00 | 46 | 1012.9 |